Stations météo

réclame
Mon MeteoGroup
Cap Cepet, France (7661): Température de l'air & dewpoint: 12.01.2019 13:00:00 - 18.01.2019 13:00:00 (CET)Cap Cepet, France (7661): Vitesse du vent & gusts: 12.01.2019 13:00:00 - 18.01.2019 13:00:00 (CET)Cap Cepet, France (7661): Direction du vent: 12.01.2019 13:00:00 - 18.01.2019 13:00:00 (CET)Cap Cepet, France (7661): reduced air pressure: 12.01.2019 13:00:00 - 18.01.2019 13:00:00 (CET)Cap Cepet, France (7661): visibility: 12.01.2019 13:00:00 - 18.01.2019 13:00:00 (CET)Cap Cepet, France (7661): Quantités de précipitations: 12.01.2019 13:00:00 - 18.01.2019 13:00:00 (CET)
Date & Time tt [°C] td [°C] ff [km/h] ff [knt] fx [km/h] fx [knt] dd ppp [hPa] vv [km] rr [mm]
18.01.2019 13:00:00 - - - - - - - - - -
18.01.2019 12:00:00 9,2 -2,4 29 15 53 29 WNW 1012,8 - 0,0
18.01.2019 11:00:00 8,6 -2,7 32 17 62 33 WNW 1012,7 - 0,0
18.01.2019 10:00:00 7,4 -1,8 32 18 61 33 W 1012,8 25 0,0
18.01.2019 09:00:00 6,2 -2,7 24 13 44 24 WNW 1012,9 - 0,0
18.01.2019 08:00:00 6,0 -2,6 28 15 58 31 W 1012,4 - 0,0
18.01.2019 07:00:00 5,9 -2,5 28 15 48 26 WNW 1012,1 20 0,0
18.01.2019 06:00:00 5,8 -2,6 23 12 44 24 WNW 1012,2 - 0,0
18.01.2019 05:00:00 6,1 -2,5 21 11 36 19 WNW 1012,1 - 0,0
18.01.2019 04:00:00 6,6 -3,4 23 12 42 23 W 1012,3 - 0,0
18.01.2019 03:00:00 6,7 -2,0 28 15 46 25 W 1012,4 - 0,0
18.01.2019 02:00:00 7,1 -0,9 28 15 53 29 W 1013,0 - 0,0
18.01.2019 01:00:00 7,9 0,1 29 15 50 27 WNW 1013,3 - 0,0
18.01.2019 00:00:00 8,4 1,1 31 17 47 26 W 1013,5 - 0,0
17.01.2019 23:00:00 8,9 2,0 31 17 48 26 WNW 1013,2 - 0,0
17.01.2019 22:00:00 9,0 3,0 32 17 50 27 W 1013,2 - 0,0
17.01.2019 21:00:00 9,5 2,8 32 17 50 27 WNW 1012,8 - 0,0
17.01.2019 20:00:00 9,8 5,2 29 16 50 27 W 1012,9 - 0,0
17.01.2019 19:00:00 9,8 6,7 28 15 42 23 WNW 1012,5 20 0,0
17.01.2019 18:00:00 9,8 6,9 23 12 37 20 W 1012,6 - 0,0
17.01.2019 17:00:00 10,3 7,2 26 14 47 26 W 1012,5 - 0,0
17.01.2019 16:00:00 11,1 7,8 29 15 48 26 W 1012,7 20 0,0
17.01.2019 15:00:00 11,6 7,3 25 13 40 21 W 1012,8 - 0,0
17.01.2019 14:00:00 11,6 8,3 25 13 41 22 W 1013,2 - 0,0
17.01.2019 13:00:00 11,9 6,6 19 11 37 20 WNW 1013,9 20 0,0
17.01.2019 12:00:00 11,1 7,8 19 11 49 26 W 1014,4 - 0,0
17.01.2019 11:00:00 10,1 8,5 24 13 42 23 W 1014,9 - 0,0
17.01.2019 10:00:00 10,1 8,0 11 6 22 12 WSW 1014,8 15 0,0
17.01.2019 09:00:00 9,6 8,5 10 5 22 12 W 1014,5 - 0,0
17.01.2019 08:00:00 9,7 8,8 6 3 16 9 W 1014,5 - 0,0
17.01.2019 07:00:00 9,4 8,8 6 3 16 9 NE 1014,5 - 0,0
17.01.2019 06:00:00 9,1 8,3 11 6 19 11 ESE 1014,6 - 2,5
17.01.2019 05:00:00 8,7 7,9 9 5 27 14 ENE 1015,1 - 0,8
17.01.2019 04:00:00 8,7 7,9 16 8 30 16 ENE 1015,7 15 3,0
17.01.2019 03:00:00 9,1 7,5 19 10 28 15 NE 1016,4 - 0,0
17.01.2019 02:00:00 9,4 7,5 10 6 19 10 E 1016,8 - 0,0
17.01.2019 01:00:00 9,3 7,9 14 7 25 13 ENE 1017,4 - 0,0
17.01.2019 00:00:00 8,9 7,7 15 8 26 14 NE 1018,1 - 0,2
16.01.2019 23:00:00 9,2 7,6 13 7 18 10 ENE 1018,3 - 0,0
16.01.2019 22:00:00 10,2 7,6 12 7 16 9 ENE 1018,2 18 0,0
16.01.2019 21:00:00 10,1 7,2 12 7 18 10 NE 1018,3 - 0,0
16.01.2019 20:00:00 10,1 7,2 12 6 22 12 E 1018,4 - 0,0
16.01.2019 19:00:00 10,8 7,3 12 6 19 10 NE 1018,1 20 0,0
16.01.2019 18:00:00 10,3 6,3 10 5 12 7 E 1018,1 - 0,0
16.01.2019 17:00:00 10,6 6,3 6 3 12 7 SSE 1018,2 - 0,0
16.01.2019 16:00:00 13,5 7,0 6 4 16 9 SSE 1018,0 - 0,0
16.01.2019 15:00:00 13,9 7,6 6 4 16 9 SSE 1018,2 - 0,0
16.01.2019 14:00:00 12,7 7,4 8 5 20 11 S 1018,5 - 0,0
16.01.2019 13:00:00 14,3 8,7 8 4 18 10 SSE 1018,9 - 0,0
16.01.2019 12:00:00 14,1 7,4 9 5 18 10 SSE 1019,4 - 0,0
16.01.2019 11:00:00 11,1 7,6 9 5 19 10 NE 1020,0 - 0,0
16.01.2019 10:00:00 10,0 7,2 14 7 22 12 NE 1019,7 18 0,0
16.01.2019 09:00:00 8,7 6,8 15 8 25 13 NE 1019,4 - 0,0
16.01.2019 08:00:00 8,1 6,1 16 9 23 13 NE 1019,0 - 0,0
16.01.2019 07:00:00 7,9 5,9 16 9 24 13 NE 1018,8 - 0,0
16.01.2019 06:00:00 7,9 5,7 17 9 28 15 NE 1018,8 - 0,0
16.01.2019 05:00:00 8,4 5,5 19 10 29 15 NE 1019,1 - 0,0
16.01.2019 04:00:00 7,8 4,6 17 9 26 14 NE 1019,6 - 0,0
16.01.2019 03:00:00 7,8 4,0 16 9 28 15 ENE 1020,0 - 0,0
16.01.2019 02:00:00 7,0 3,2 12 6 22 12 NE 1019,7 - 0,0
16.01.2019 01:00:00 8,5 3,5 14 8 24 13 NE 1019,9 - 0,0
16.01.2019 00:00:00 8,2 1,6 5 3 14 7 ENE 1020,2 - 0,0
15.01.2019 23:00:00 8,1 3,5 10 5 14 7 NE 1019,9 - 0,0
15.01.2019 22:00:00 9,5 3,5 8 5 14 8 NE 1019,6 - 0,0
15.01.2019 21:00:00 9,6 4,4 6 4 11 6 ENE 1019,4 - 0,0
15.01.2019 20:00:00 8,8 3,4 6 3 10 6 NNW 1019,3 - 0,0
15.01.2019 19:00:00 10,1 4,0 5 3 17 9 NW 1019,2 25 0,0
15.01.2019 18:00:00 11,6 4,1 12 7 16 9 ENE 1018,6 - 0,0
15.01.2019 17:00:00 12,8 4,5 7 4 19 11 ESE 1018,4 - 0,0
15.01.2019 16:00:00 14,7 5,5 11 6 19 11 E 1018,0 - 0,0
15.01.2019 15:00:00 15,5 3,6 13 7 23 12 E 1017,8 - 0,0
15.01.2019 14:00:00 15,2 4,0 13 7 22 12 E 1018,0 - 0,0
15.01.2019 13:00:00 14,2 0,8 16 9 24 13 NE 1018,3 - 0,0
15.01.2019 12:00:00 13,6 1,2 16 9 27 14 NE 1018,8 - 0,0
15.01.2019 11:00:00 11,9 0,3 17 9 25 14 ENE 1018,8 - 0,0
15.01.2019 10:00:00 9,8 -0,4 15 8 22 12 ENE 1018,2 25 0,0
15.01.2019 09:00:00 8,8 -1,6 4 2 14 8 NW 1017,3 - 0,0
15.01.2019 08:00:00 7,7 -1,8 13 7 18 10 ENE 1016,6 - 0,0
15.01.2019 07:00:00 8,3 -2,1 4 2 12 6 NNE 1016,3 20 0,0
15.01.2019 06:00:00 9,2 -4,8 7 4 13 7 N 1015,5 - 0,0
15.01.2019 05:00:00 7,9 -1,4 8 5 16 9 W 1015,5 - 0,0
15.01.2019 04:00:00 8,4 -3,5 7 4 16 9 W 1015,2 20 0,0
15.01.2019 03:00:00 8,7 -2,6 6 4 24 13 W 1014,7 - 0,0
15.01.2019 02:00:00 9,0 -3,2 13 7 27 15 W 1013,9 - 0,0
15.01.2019 01:00:00 8,8 -3,1 11 6 29 16 WNW 1013,5 - 0,0
15.01.2019 00:00:00 9,2 -2,7 20 11 45 24 W 1013,0 - 0,0
14.01.2019 23:00:00 9,4 -2,6 27 15 61 33 WNW 1011,9 - 0,0
14.01.2019 22:00:00 9,2 -1,5 38 20 72 39 WNW 1011,1 - 0,0
14.01.2019 21:00:00 9,5 -1,3 41 22 77 41 WNW 1011,2 - 0,0
14.01.2019 20:00:00 9,9 -1,8 47 25 73 40 W 1010,8 - 0,0
14.01.2019 19:00:00 10,5 -1,3 45 25 79 43 W 1010,2 20 0,0
14.01.2019 18:00:00 11,1 -1,7 45 25 80 43 W 1009,9 - 0,0
14.01.2019 17:00:00 12,2 -1,0 54 29 89 48 WNW 1008,7 - 0,0
14.01.2019 16:00:00 14,0 0,9 39 21 72 39 WNW 1008,8 20 0,0
14.01.2019 15:00:00 15,1 1,9 33 18 62 33 WNW 1008,5 - 0,0
14.01.2019 14:00:00 15,2 1,7 31 17 61 33 WNW 1008,9 - 0,0
14.01.2019 13:00:00 14,8 1,3 26 14 62 33 WNW 1009,1 20 0,0
14.01.2019 12:00:00 13,7 2,6 36 19 67 36 WNW 1008,4 - 0,0
14.01.2019 11:00:00 12,8 1,5 33 18 67 36 WNW 1008,8 - 0,0
14.01.2019 10:00:00 12,7 1,4 34 18 98 53 WNW 1007,8 25 0,0
14.01.2019 09:00:00 12,2 2,3 57 31 108 58 WNW 1005,4 - 0,0
14.01.2019 08:00:00 12,3 3,0 61 33 113 61 WNW 1004,5 - 0,0
14.01.2019 07:00:00 12,3 3,5 57 31 108 59 WNW 1005,0 20 0,0
14.01.2019 06:00:00 12,2 3,7 55 30 106 57 WNW 1005,2 - 0,0
14.01.2019 05:00:00 12,3 3,8 67 36 120 65 WNW 1004,8 - 0,0
14.01.2019 04:00:00 12,0 4,5 53 29 95 51 WNW 1006,2 - 0,0
14.01.2019 03:00:00 12,4 4,6 41 22 94 51 WNW 1008,3 - 0,0
14.01.2019 02:00:00 12,9 4,3 44 24 82 44 WNW 1008,3 - 0,0
14.01.2019 01:00:00 13,2 4,3 44 24 83 45 W 1009,3 - 0,0
14.01.2019 00:00:00 12,6 5,5 51 28 86 47 W 1010,5 - 0,0
13.01.2019 23:00:00 12,6 5,3 45 24 84 45 W 1011,2 - 0,0
13.01.2019 22:00:00 12,4 5,8 58 31 98 53 W 1011,2 20 0,0
13.01.2019 21:00:00 12,2 6,0 69 37 99 53 W 1010,9 - 0,0
13.01.2019 20:00:00 12,4 5,3 61 33 106 57 WNW 1010,1 - 0,0
13.01.2019 19:00:00 12,6 4,8 61 33 116 63 WNW 1009,1 20 0,0
13.01.2019 18:00:00 12,6 4,8 56 31 106 58 WNW 1007,9 - 0,0
13.01.2019 17:00:00 12,4 4,1 36 20 84 45 WNW 1009,5 - 0,0
13.01.2019 16:00:00 11,9 4,4 50 27 89 48 WNW 1009,8 - 0,0
13.01.2019 15:00:00 12,0 4,2 48 26 90 49 WNW 1010,1 - 0,0
13.01.2019 14:00:00 12,3 4,3 45 25 92 50 WNW 1010,7 - 0,0
13.01.2019 13:00:00 11,9 4,1 25 13 85 46 WNW 1012,7 - 0,0
13.01.2019 12:00:00 11,4 3,7 54 29 109 59 WNW 1012,0 - 0,0
13.01.2019 11:00:00 11,0 3,5 62 34 113 61 WNW 1012,1 - 0,0
13.01.2019 10:00:00 10,6 2,9 62 33 96 52 WNW 1012,4 20 0,0
13.01.2019 09:00:00 9,9 2,5 50 27 81 44 WNW 1013,4 - 0,0
13.01.2019 08:00:00 9,6 2,2 49 27 91 49 WNW 1012,8 - 0,0
13.01.2019 07:00:00 8,9 2,0 40 22 111 60 W 1013,2 - 0,0
13.01.2019 06:00:00 8,4 1,8 78 42 109 59 WNW 1010,5 - 0,0
13.01.2019 05:00:00 8,2 1,8 72 39 101 55 W 1012,5 - 0,0
13.01.2019 04:00:00 8,4 1,5 66 36 94 51 W 1013,4 15 0,0
13.01.2019 03:00:00 8,0 0,7 61 33 105 57 WNW 1013,4 - 0,0
13.01.2019 02:00:00 7,9 -0,3 48 26 78 42 WNW 1014,7 - 0,0
13.01.2019 01:00:00 8,1 -1,7 42 23 83 45 WNW 1015,2 - 0,0
13.01.2019 00:00:00 7,6 -1,1 19 10 46 25 W 1015,8 - 0,0
12.01.2019 23:00:00 6,5 -1,2 33 18 49 27 W 1016,4 - 0,0
12.01.2019 22:00:00 6,3 -0,5 19 10 43 23 W 1017,3 - 0,0
12.01.2019 21:00:00 7,2 1,1 26 14 43 23 W 1017,7 - 0,0
12.01.2019 20:00:00 8,0 2,0 24 13 34 19 W 1018,2 - 0,0
12.01.2019 19:00:00 9,0 1,6 18 10 26 14 W 1018,5 - 0,0
12.01.2019 18:00:00 9,4 2,3 7 4 15 8 NW 1018,5 - 0,0
12.01.2019 17:00:00 11,0 0,4 10 5 14 7 W 1018,5 - 0,0
12.01.2019 16:00:00 12,2 0,0 7 4 14 8 W 1018,7 - 0,0
12.01.2019 15:00:00 11,7 0,7 8 4 14 8 WSW 1019,0 - 0,0
12.01.2019 14:00:00 11,6 -0,3 3 2 14 7 SSW 1019,6 - 0,0
12.01.2019 13:00:00 9,7 -3,6 2 1 9 5 ENE 1020,4 - 0,0

tt = Température de l'air
td = dewpoint
ff = Vitesse du vent
fx = gusts
dd = Direction du vent
ppp = reduced air pressure
vv = visibility
rr = Quantités de précipitations

stations d'obs. à proximité